logo tempoitalia

Diretta Meteo Benson, Stati Uniti (USA)lunedì 31 agosto ore 01:35

Mappa
Sereno 23 °C Sereno 24 Ore: T.min 20 T.max 28
Ponente Sud-Est Km/h 9.3 Punto di rugiada: 23 °C Umidità: 100% Visibilità: 11 Km
Il sole sorge alle: 06:43 Il sole tramonta alle: 20:02
31 Agosto 2026 01:35 tempo osservato: Sereno Sereno 23 100 1006 vento: Nord SE 9.3
31 Agosto 2026 01:15 tempo osservato: Sereno Sereno 23 100 1006 vento: Nord SE 7.4
31 Agosto 2026 00:55 tempo osservato: Sereno Sereno 23 100 1005 vento: Nord S/SE 7.4
31 Agosto 2026 00:35 tempo osservato: Sereno Sereno 24 94 1005 vento: Nord SE 13
31 Agosto 2026 00:25 tempo osservato: Sereno Sereno 24 94 1005 vento: Nord SE 13
31 Agosto 2026 00:05 tempo osservato: Sereno Sereno 24 94 1005 vento: Nord SE 13
31 Agosto 2026 00:03 tempo osservato: Sereno Sereno 24 94 1005 vento: Nord SE 13
30 Agosto 2026 23:45 tempo osservato: Sereno Sereno 25 88 1005 vento: Nord SE 13
30 Agosto 2026 23:20 tempo osservato: Sereno Sereno 25 94 1006 vento: Nord SE 14.8
30 Agosto 2026 23:00 tempo osservato: Sereno Sereno 25 94 1006 vento: Nord E/SE 13
30 Agosto 2026 22:35 tempo osservato: Sereno Sereno 26 88 1006 vento: Nord N 9.3
30 Agosto 2026 22:15 tempo osservato: Sereno Sereno 26 88 1006 vento: Nord E/SE 13
30 Agosto 2026 21:55 tempo osservato: Sereno Sereno 26 83 1006 vento: Nord E/SE 13
30 Agosto 2026 21:35 tempo osservato: Sereno Sereno 26 83 1005 vento: Nord E/SE 13
30 Agosto 2026 21:25 tempo osservato: Sereno Sereno 26 83 1005 vento: Nord N 11.1
30 Agosto 2026 21:00 tempo osservato: Sereno Sereno 26 83 1005 vento: Nord E 14.8
30 Agosto 2026 20:40 tempo osservato: Sereno Sereno 26 83 1005 vento: Nord E 13
30 Agosto 2026 20:15 tempo osservato: Sereno Sereno 26 88 1005 vento: Nord N 11.1
30 Agosto 2026 19:55 tempo osservato: Sereno Sereno 27 83 1005 vento: Nord N 5.5
30 Agosto 2026 19:35 tempo osservato: Sereno Sereno 27 83 1005 vento: Nord E 14.8
30 Agosto 2026 19:15 tempo osservato: Sereno Sereno 27 83 1006 vento: Nord N 7.4
30 Agosto 2026 18:55 tempo osservato: Sereno Sereno 27 83 1006 vento: Nord N 9.3
30 Agosto 2026 18:45 tempo osservato: Sereno Sereno 27 83 1006 vento: Nord N 9.3
30 Agosto 2026 18:20 tempo osservato: Sereno Sereno 28 78 1006 vento: Nord E 13
30 Agosto 2026 17:55 tempo osservato: Sereno Sereno 28 78 1006 vento: Nord E 16.7
30 Agosto 2026 17:35 tempo osservato: Poco Nuvoloso Poco Nuvoloso 28 74 1006 vento: Nord N 11.1
30 Agosto 2026 17:15 tempo osservato: Molto Nuvoloso Molto Nuvoloso 28 74 1006 vento: Nord N 11.1
30 Agosto 2026 16:55 tempo osservato: Coperto Coperto 27 78 1006 vento: Nord N 11.1
30 Agosto 2026 16:35 tempo osservato: Coperto Coperto 27 78 1007 vento: Nord N 5.5
30 Agosto 2026 16:25 tempo osservato: Coperto Coperto 27 78 1007 vento: Nord N 5.5
30 Agosto 2026 15:55 tempo osservato: Coperto Coperto 26 83 1007 vento: Nord E 13
30 Agosto 2026 15:35 tempo osservato: Coperto Coperto 26 83 1007 vento: Nord E 13
30 Agosto 2026 15:15 tempo osservato: Coperto Coperto 26 78 1007 vento: Nord N 9.3
30 Agosto 2026 15:00 tempo osservato: Coperto Coperto 26 78 1007 vento: Nord E 14.8
30 Agosto 2026 14:40 tempo osservato: Coperto Coperto 26 78 1007 vento: Nord N 9.3
30 Agosto 2026 14:15 tempo osservato: Molto Nuvoloso Molto Nuvoloso 26 78 1007 vento: Nord E/SE 13
30 Agosto 2026 13:55 tempo osservato: Molto Nuvoloso Molto Nuvoloso 27 74 1007 vento: Nord E/SE 18.5
30 Agosto 2026 13:35 tempo osservato: Molto Nuvoloso Molto Nuvoloso 26 78 1007 vento: Nord E 16.7
30 Agosto 2026 13:15 tempo osservato: Poco Nuvoloso Poco Nuvoloso 26 78 1007 vento: Nord E/SE 22.2
30 Agosto 2026 13:05 tempo osservato: Poco Nuvoloso Poco Nuvoloso 25 78 1007 vento: Nord E/SE 14.8
30 Agosto 2026 13:03 tempo osservato: Poco Nuvoloso Poco Nuvoloso 25 78 1007 vento: Nord E 14.8
30 Agosto 2026 12:45 tempo osservato: Poco Nuvoloso Poco Nuvoloso 26 73 1008 vento: Nord E 18.5
30 Agosto 2026 12:41 tempo osservato: Poco Nuvoloso Poco Nuvoloso 26 73 1008 vento: Nord E 18.5
30 Agosto 2026 12:20 tempo osservato: Molto Nuvoloso Molto Nuvoloso 25 78 1008 vento: Nord E/SE 20.3
30 Agosto 2026 11:55 tempo osservato: Molto Nuvoloso Molto Nuvoloso 25 78 1008 vento: Nord E/SE 18.5
30 Agosto 2026 11:35 tempo osservato: Coperto Coperto 24 83 1008 vento: Nord E 16.7
30 Agosto 2026 11:15 tempo osservato: Coperto Coperto 23 83 1008 vento: Nord E 16.7
30 Agosto 2026 10:55 tempo osservato: Coperto Coperto 23 83 1008 vento: Nord E 16.7
30 Agosto 2026 10:45 tempo osservato: Coperto Coperto 23 88 1008 vento: Nord N 7.4
30 Agosto 2026 10:42 tempo osservato: Coperto Coperto 23 88 1008 vento: Nord E/SE 7.4
30 Agosto 2026 10:20 tempo osservato: Coperto Coperto 22 88 1008 vento: Nord N 9.3
30 Agosto 2026 09:55 tempo osservato: Coperto Coperto 22 88 1008 vento: Nord E 14.8
30 Agosto 2026 09:35 tempo osservato: Foschia Foschia 21 94 1008 vento: Nord E 18.5
30 Agosto 2026 09:25 tempo osservato: Foschia Foschia 21 94 1008 vento: Nord E/NE 18.5
30 Agosto 2026 09:22 tempo osservato: Foschia Foschia 21 94 1008 vento: Nord E/NE 18.5
30 Agosto 2026 09:00 tempo osservato: Foschia Foschia 20 100 1008 vento: Nord E/NE 14.8
30 Agosto 2026 08:40 tempo osservato: Foschia Foschia 20 100 1008 vento: Nord E 14.8
30 Agosto 2026 08:15 tempo osservato: Foschia Foschia 20 100 1008 vento: Nord E/NE 11.1
30 Agosto 2026 07:55 tempo osservato: Foschia Foschia 20 100 1008 vento: Nord E/NE 14.8
30 Agosto 2026 07:35 tempo osservato: Foschia Foschia 20 100 1008 vento: Nord E/NE 11.1
30 Agosto 2026 07:15 tempo osservato: Foschia Foschia 20 93 1008 vento: Nord E 11.1
30 Agosto 2026 07:05 tempo osservato: Foschia Foschia 20 93 1008 vento: Nord E 9.3
30 Agosto 2026 06:40 tempo osservato: Foschia Foschia 20 93 1008 vento: Nord N 7.4
30 Agosto 2026 06:15 tempo osservato: Foschia Foschia 20 100 1007 vento: Nord N 5.5
30 Agosto 2026 05:55 tempo osservato: Foschia Foschia 20 93 1008 vento: Nord N 7.4
30 Agosto 2026 05:35 tempo osservato: Foschia Foschia 20 100 1008 vento: Nord N 5.5
30 Agosto 2026 05:15 tempo osservato: Foschia Foschia 20 100 1008 vento: Nord E 7.4
30 Agosto 2026 05:05 tempo osservato: Foschia Foschia 20 100 1008 vento: Nord N 7.4
30 Agosto 2026 05:03 tempo osservato: Foschia Foschia 20 100 1008 vento: Nord E/NE 11.1
30 Agosto 2026 04:40 tempo osservato: Poco Nuvoloso Poco Nuvoloso 20 93 1008 vento: Nord N 11.1
30 Agosto 2026 04:20 tempo osservato: Sereno Sereno 20 100 1008 vento: Nord E/NE 11.1
30 Agosto 2026 03:55 tempo osservato: Sereno Sereno 20 100 1008 vento: Nord E/NE 11.1
30 Agosto 2026 03:35 tempo osservato: Sereno Sereno 20 100 1008 vento: Nord E/NE 9.3
30 Agosto 2026 03:15 tempo osservato: Sereno Sereno 20 100 1008 vento: Nord N 7.4
30 Agosto 2026 02:55 tempo osservato: Sereno Sereno 20 100 1008 vento: Nord N 9.3
30 Agosto 2026 02:45 tempo osservato: Sereno Sereno 20 100 1008 vento: Nord N 9.3
30 Agosto 2026 02:42 tempo osservato: Sereno Sereno 20 100 1008 vento: Nord E 13
30 Agosto 2026 02:25 tempo osservato: Sereno Sereno 20 100 1008 vento: Nord N 7.4
30 Agosto 2026 02:22 tempo osservato: Sereno Sereno 20 100 1008 vento: Nord E/NE 9.3
30 Agosto 2026 02:00 tempo osservato: Sereno Sereno 20 100 1008 vento: Nord N 7.4
30 Agosto 2026 01:40 tempo osservato: Sereno Sereno 20 100 1009 vento: Nord E/NE 7.4